Location: Newark
(42.0700°N, 88.0492°W)
Time: 17:41:56
(UTC+00:00)

ISS - Pass Details

Date: 30 September 2019
Orbit: 411 x 421 km, 51.6° (Epoch: 24 October)

Event Time Altitude Azimuth Distance (km) Brightness Sun altitude
Rises 00:41:58 0° 297° (WNW) 2,345 1.5 -12.8°
Reaches altitude 10° 00:44:41 10° 321° (NW) 1,482 -0.3 -13.3°
Maximum altitude 00:46:47 16° 1° (N) 1,190 -1.4 -13.7°
Enters shadow 00:48:49 10° 39° (NE) 1,467 -1.3 -14.0°
